Location: Cahas Mountain Overlook
(37.0833°N, 80.1000°W)
Time: 05:02:42
(UTC-05:00)

SR - Visible Passes

Search period start: 19 January 2022 00:00
Search period end: 29 January 2022 00:00
Orbit: 582 x 872 km, 66.7° (Epoch: 18 January)

Date Brightness Start Highest point End Pass type
(mag) Time Alt. Az. Time Alt. Az. Time Alt. Az.
22 Jan ? 19:35:11 10° N 19:35:21 11° N 19:35:21 11° N visible
23 Jan ? 18:46:44 10° NNE 18:47:27 11° NNE 18:47:27 11° NNE visible
23 Jan ? 20:26:31 10° NNW 20:26:52 12° NNW 20:26:52 12° NNW visible
24 Jan ? 19:36:48 10° NNW 19:39:12 28° N 19:39:12 28° N visible
25 Jan ? 18:47:32 10° N 18:51:20 23° NE 18:51:50 23° ENE visible
25 Jan ? 20:28:53 10° NW 20:31:19 27° WNW 20:31:19 27° WNW visible
26 Jan ? 19:38:46 10° NNW 19:43:36 90° S 19:44:27 63° SSE visible
27 Jan ? 18:49:06 10° NNW 18:53:39 42° ENE 18:58:29 10° SE visible
27 Jan ? 20:31:47 10° WNW 20:35:27 21° WSW 20:38:07 15° SW visible
28 Jan ? 17:59:53 10° N 18:03:34 21° NE 18:07:27 10° ESE visible
28 Jan ? 19:41:05 10° NW 19:45:43 45° WSW 19:50:44 10° S visible
